Location: Ay?beleni
(36.6500°N, 30.3000°E)
Time: 04:19:49
(UTC+00:00)

Landsat 5 - Pass Details

Date: 16 October 2021
Orbit: 528 x 652 km, 98.2° (Epoch: 08 December)

Event Time Altitude Azimuth Distance (km) Brightness Sun altitude
Rises 16:13:19 0° 9° (N) 2,885 6.9 -11.2°
Reaches altitude 10° 16:15:28 10° 8° (N) 1,994 6.1 -11.7°
Maximum altitude 16:19:48 71° 285° (WNW) 673 3.9 -12.5°
Drops below altitude 10° 16:24:14 10° 201° (SSW) 2,035 6.5 -13.4°
Sets 16:26:27 0° 199° (SSW) 2,949 7.3 -13.9°
